Year,Month,Day,Hour,Minute,Value (Times are PST for windgust in km/hr)
2015,12,12,00,12,3.20
2015,12,12,00,14,3.20
2015,12,12,00,15,12.90
2015,12,12,00,16,8.10
2015,12,12,00,22,6.40
2015,12,12,00,23,9.60
2015,12,12,00,24,8.10
2015,12,12,00,25,3.20
2015,12,12,00,26,11.30
2015,12,12,00,27,9.60
2015,12,12,00,28,1.60
2015,12,12,00,29,3.20
2015,12,12,00,30,3.20
2015,12,12,00,31,8.10
2015,12,12,00,32,3.20
2015,12,12,00,47,3.20
2015,12,12,00,48,6.40
2015,12,12,00,49,3.20
2015,12,12,00,50,9.60
2015,12,12,00,51,8.10
2015,12,12,00,52,8.10
2015,12,12,00,53,3.20
2015,12,12,00,54,3.20
2015,12,12,00,55,3.20
2015,12,12,00,56,4.80
2015,12,12,00,57,6.40
2015,12,12,01,00,1.60
2015,12,12,01,01,6.40
2015,12,12,01,02,6.40
2015,12,12,01,03,6.40
2015,12,12,01,04,6.40
2015,12,12,01,05,3.20
2015,12,12,01,06,9.60
2015,12,12,01,07,6.40
2015,12,12,01,08,11.30
2015,12,12,01,09,4.80
2015,12,12,01,10,6.40
2015,12,12,01,11,11.30
2015,12,12,01,12,8.10
2015,12,12,01,13,11.30
2015,12,12,01,14,9.60
2015,12,12,01,15,6.40
2015,12,12,01,16,6.40
2015,12,12,01,17,8.10
2015,12,12,01,18,6.40
2015,12,12,01,19,8.10
2015,12,12,01,20,3.20
2015,12,12,01,21,1.60
2015,12,12,01,23,3.20
2015,12,12,01,25,1.60
2015,12,12,01,26,6.40
2015,12,12,01,28,1.60
2015,12,12,01,29,3.20
2015,12,12,01,31,8.10
2015,12,12,01,32,8.10
2015,12,12,01,33,3.20
2015,12,12,01,34,4.80
2015,12,12,01,35,4.80
2015,12,12,01,36,3.20
2015,12,12,01,37,3.20
2015,12,12,01,38,8.10
2015,12,12,01,39,1.60
2015,12,12,01,40,3.20
2015,12,12,01,42,6.40
2015,12,12,01,43,1.60
2015,12,12,01,44,8.10
2015,12,12,01,45,6.40
2015,12,12,01,46,1.60
2015,12,12,01,48,6.40
2015,12,12,01,49,8.10
2015,12,12,01,51,11.30
2015,12,12,01,52,6.40
2015,12,12,01,53,4.80
2015,12,12,01,54,3.20
2015,12,12,01,55,4.80
2015,12,12,01,57,9.60
2015,12,12,01,58,8.10
2015,12,12,01,59,11.30
2015,12,12,02,00,8.10
2015,12,12,02,01,9.60
2015,12,12,02,02,8.10
2015,12,12,02,03,9.60
2015,12,12,02,04,11.30
2015,12,12,02,05,8.10
2015,12,12,02,06,8.10
2015,12,12,02,07,9.60
2015,12,12,02,08,3.20
2015,12,12,02,09,3.20
2015,12,12,02,10,8.10
2015,12,12,02,11,1.60
2015,12,12,02,13,3.20
2015,12,12,02,14,4.80
2015,12,12,02,16,12.90
2015,12,12,02,17,11.30
2015,12,12,02,18,9.60
2015,12,12,02,19,9.60
2015,12,12,02,20,9.60
2015,12,12,02,21,3.20
2015,12,12,02,22,6.40
2015,12,12,02,23,12.90
2015,12,12,02,24,6.40
2015,12,12,02,25,9.60
2015,12,12,02,26,11.30
2015,12,12,02,27,8.10
2015,12,12,02,28,11.30
2015,12,12,02,29,8.10
2015,12,12,02,30,4.80
2015,12,12,02,31,9.60
2015,12,12,02,32,11.30
2015,12,12,02,33,8.10
2015,12,12,02,34,14.50
2015,12,12,02,35,14.50
2015,12,12,02,36,14.50
2015,12,12,02,37,4.80
2015,12,12,02,38,12.90
2015,12,12,02,39,8.10
2015,12,12,02,40,9.60
2015,12,12,02,41,6.40
2015,12,12,02,42,12.90
2015,12,12,02,43,12.90
2015,12,12,02,44,6.40
2015,12,12,02,45,8.10
2015,12,12,02,46,9.60
2015,12,12,02,47,12.90
2015,12,12,02,48,9.60
2015,12,12,02,49,8.10
2015,12,12,02,50,8.10
2015,12,12,02,51,6.40
2015,12,12,02,52,11.30
2015,12,12,02,53,16.10
2015,12,12,02,54,14.50
2015,12,12,02,55,17.70
2015,12,12,02,56,8.10
2015,12,12,02,57,6.40
2015,12,12,02,58,9.60
2015,12,12,02,59,11.30
2015,12,12,03,00,6.40
2015,12,12,03,01,9.60
2015,12,12,03,02,9.60
2015,12,12,03,03,3.20
2015,12,12,03,05,1.60
2015,12,12,03,06,8.10
2015,12,12,03,07,6.40
2015,12,12,03,08,6.40
2015,12,12,03,09,3.20
2015,12,12,03,10,3.20
2015,12,12,03,12,1.60
2015,12,12,03,13,8.10
2015,12,12,03,14,8.10
2015,12,12,03,15,1.60
2015,12,12,03,19,9.60
2015,12,12,03,20,9.60
2015,12,12,03,21,3.20
2015,12,12,03,22,9.60
2015,12,12,03,24,8.10
2015,12,12,03,25,3.20
2015,12,12,03,31,6.40
2015,12,12,03,32,8.10
2015,12,12,03,33,8.10
2015,12,12,03,34,8.10
2015,12,12,03,35,8.10
2015,12,12,03,36,11.30
2015,12,12,03,37,11.30
2015,12,12,03,38,8.10
2015,12,12,03,39,8.10
2015,12,12,03,40,11.30
2015,12,12,03,41,8.10
2015,12,12,03,42,16.10
2015,12,12,03,43,11.30
2015,12,12,03,44,11.30
2015,12,12,03,45,9.60
2015,12,12,03,46,9.60
2015,12,12,03,47,11.30
2015,12,12,03,48,9.60
2015,12,12,03,49,11.30
2015,12,12,03,50,14.50
2015,12,12,03,51,14.50
2015,12,12,03,52,6.40
2015,12,12,03,53,14.50
2015,12,12,03,54,9.60
2015,12,12,03,55,11.30
2015,12,12,03,56,3.20
2015,12,12,03,57,14.50
2015,12,12,03,58,6.40
2015,12,12,03,59,16.10
2015,12,12,04,00,11.30
2015,12,12,04,01,8.10
2015,12,12,04,02,12.90
2015,12,12,04,03,14.50
2015,12,12,04,04,11.30
2015,12,12,04,05,8.10
2015,12,12,04,06,1.60
2015,12,12,04,07,6.40
2015,12,12,04,08,6.40
2015,12,12,04,09,6.40
2015,12,12,04,10,1.60
2015,12,12,04,11,9.60
2015,12,12,04,12,6.40
2015,12,12,04,13,4.80
2015,12,12,04,14,3.20
2015,12,12,04,15,6.40
2015,12,12,04,16,6.40
2015,12,12,04,17,3.20
2015,12,12,04,18,9.60
2015,12,12,04,19,3.20
2015,12,12,04,20,3.20
2015,12,12,04,21,1.60
2015,12,12,04,22,3.20
2015,12,12,04,23,4.80
2015,12,12,04,24,8.10
2015,12,12,04,25,6.40
2015,12,12,04,26,8.10
2015,12,12,04,27,4.80
2015,12,12,04,28,3.20
2015,12,12,04,29,6.40
2015,12,12,04,30,3.20
2015,12,12,04,31,4.80
2015,12,12,04,32,1.60
2015,12,12,04,33,3.20
2015,12,12,04,34,6.40
2015,12,12,04,35,3.20
2015,12,12,04,36,3.20
2015,12,12,04,37,6.40
2015,12,12,04,40,3.20
2015,12,12,04,41,1.60
2015,12,12,04,43,1.60
2015,12,12,04,44,3.20
2015,12,12,04,45,3.20
2015,12,12,04,46,4.80
2015,12,12,04,47,3.20
2015,12,12,04,48,6.40
2015,12,12,04,49,6.40
2015,12,12,04,50,3.20
2015,12,12,04,51,4.80
2015,12,12,04,52,3.20
2015,12,12,04,54,1.60
2015,12,12,04,55,3.20
2015,12,12,04,56,3.20
2015,12,12,04,57,3.20
2015,12,12,04,58,3.20
2015,12,12,05,02,3.20
2015,12,12,05,03,3.20
2015,12,12,05,06,6.40
2015,12,12,05,07,1.60
2015,12,12,05,08,6.40
2015,12,12,05,09,3.20
2015,12,12,05,10,1.60
2015,12,12,05,11,6.40
2015,12,12,05,12,3.20
2015,12,12,05,13,6.40
2015,12,12,05,14,6.40
2015,12,12,05,15,1.60
2015,12,12,05,16,6.40
2015,12,12,05,17,8.10
2015,12,12,05,18,8.10
2015,12,12,05,19,6.40
2015,12,12,05,20,3.20
2015,12,12,05,21,4.80
2015,12,12,05,22,8.10
2015,12,12,05,23,11.30
2015,12,12,05,24,9.60
2015,12,12,05,25,4.80
2015,12,12,05,26,4.80
2015,12,12,05,27,4.80
2015,12,12,05,28,3.20
2015,12,12,05,29,3.20
2015,12,12,05,30,6.40
2015,12,12,05,31,1.60
2015,12,12,05,32,9.60
2015,12,12,05,33,8.10
2015,12,12,05,34,6.40
2015,12,12,05,35,3.20
2015,12,12,05,36,1.60
2015,12,12,05,37,6.40
2015,12,12,05,38,9.60
2015,12,12,05,39,8.10
2015,12,12,05,40,9.60
2015,12,12,05,41,8.10
2015,12,12,05,42,14.50
2015,12,12,05,43,12.90
2015,12,12,05,44,11.30
2015,12,12,05,45,9.60
2015,12,12,05,46,9.60
2015,12,12,05,48,8.10
2015,12,12,05,51,14.50
2015,12,12,05,52,11.30
2015,12,12,05,53,9.60
2015,12,12,05,54,11.30
2015,12,12,05,55,12.90
2015,12,12,05,56,9.60
2015,12,12,05,57,9.60
2015,12,12,05,58,11.30
2015,12,12,05,59,6.40
2015,12,12,06,00,11.30
2015,12,12,06,01,9.60
2015,12,12,06,02,6.40
2015,12,12,06,03,8.10
2015,12,12,06,04,8.10
2015,12,12,06,05,12.90
2015,12,12,06,06,6.40
2015,12,12,06,07,8.10
2015,12,12,06,08,3.20
2015,12,12,06,09,1.60
2015,12,12,06,10,6.40
2015,12,12,06,11,6.40
2015,12,12,06,12,6.40
2015,12,12,06,13,6.40
2015,12,12,06,14,9.60
2015,12,12,06,15,8.10
2015,12,12,06,16,4.80
2015,12,12,06,17,11.30
2015,12,12,06,18,8.10
2015,12,12,06,19,8.10
2015,12,12,06,20,8.10
2015,12,12,06,21,6.40
2015,12,12,06,22,8.10
2015,12,12,06,23,6.40
2015,12,12,06,24,12.90
2015,12,12,06,25,11.30
2015,12,12,06,26,6.40
2015,12,12,06,27,9.60
2015,12,12,06,28,8.10
2015,12,12,06,29,9.60
2015,12,12,06,30,9.60
2015,12,12,06,31,9.60
2015,12,12,06,32,8.10
2015,12,12,06,33,6.40
2015,12,12,06,36,6.40
2015,12,12,06,37,4.80
2015,12,12,06,41,4.80
2015,12,12,06,42,9.60
2015,12,12,06,43,1.60
2015,12,12,06,44,4.80
2015,12,12,06,45,6.40
2015,12,12,06,46,8.10
2015,12,12,06,47,9.60
2015,12,12,06,48,8.10
2015,12,12,06,49,9.60
2015,12,12,06,50,9.60
2015,12,12,06,51,8.10
2015,12,12,06,52,1.60
2015,12,12,06,53,8.10
2015,12,12,06,54,9.60
2015,12,12,06,55,9.60
2015,12,12,06,56,8.10
2015,12,12,06,57,9.60
2015,12,12,06,58,11.30
2015,12,12,06,59,9.60
2015,12,12,07,00,8.10
2015,12,12,07,01,12.90
2015,12,12,07,02,11.30
2015,12,12,07,03,8.10
2015,12,12,07,04,8.10
2015,12,12,07,05,9.60
2015,12,12,07,06,14.50
2015,12,12,07,07,12.90
2015,12,12,07,08,3.20
2015,12,12,07,09,6.40
2015,12,12,07,10,6.40
2015,12,12,07,11,8.10
2015,12,12,07,12,3.20
2015,12,12,07,13,9.60
2015,12,12,07,14,6.40
2015,12,12,07,15,6.40
2015,12,12,07,16,8.10
2015,12,12,07,17,8.10
2015,12,12,07,18,12.90
2015,12,12,07,19,6.40
2015,12,12,07,20,9.60
2015,12,12,07,21,9.60
2015,12,12,07,22,9.60
2015,12,12,07,23,6.40
2015,12,12,07,24,3.20
2015,12,12,07,25,6.40
2015,12,12,07,26,8.10
2015,12,12,07,27,3.20
2015,12,12,07,28,6.40
2015,12,12,07,29,4.80
2015,12,12,07,30,6.40
2015,12,12,07,31,6.40
2015,12,12,07,32,8.10
2015,12,12,07,33,8.10
2015,12,12,07,34,3.20
2015,12,12,07,35,4.80
2015,12,12,07,37,3.20
2015,12,12,07,40,6.40
2015,12,12,07,41,1.60
2015,12,12,07,42,1.60
2015,12,12,07,43,6.40
2015,12,12,07,51,1.60
2015,12,12,07,55,9.60
2015,12,12,07,56,8.10
2015,12,12,07,57,6.40
2015,12,12,07,58,1.60
2015,12,12,07,59,1.60
2015,12,12,08,00,4.80
2015,12,12,08,01,3.20
2015,12,12,08,02,12.90
2015,12,12,08,03,9.60
2015,12,12,08,04,8.10
2015,12,12,08,05,12.90
2015,12,12,08,06,6.40
2015,12,12,08,07,9.60
2015,12,12,08,08,9.60
2015,12,12,08,09,8.10
2015,12,12,08,10,8.10
2015,12,12,08,11,4.80
2015,12,12,08,12,9.60
2015,12,12,08,13,8.10
2015,12,12,08,14,11.30
2015,12,12,08,15,11.30
2015,12,12,08,16,9.60
2015,12,12,08,17,12.90
2015,12,12,08,18,11.30
2015,12,12,08,19,11.30
2015,12,12,08,20,8.10
2015,12,12,08,21,1.60
2015,12,12,08,22,3.20
2015,12,12,08,23,8.10
2015,12,12,08,24,3.20
2015,12,12,08,25,3.20
2015,12,12,08,26,8.10
2015,12,12,08,27,11.30
2015,12,12,08,28,12.90
2015,12,12,08,29,8.10
2015,12,12,08,30,9.60
2015,12,12,08,31,14.50
2015,12,12,08,32,14.50
2015,12,12,08,33,14.50
2015,12,12,08,34,9.60
2015,12,12,08,35,6.40
2015,12,12,08,36,9.60
2015,12,12,08,37,9.60
2015,12,12,08,38,12.90
2015,12,12,08,39,12.90
2015,12,12,08,40,6.40
2015,12,12,08,41,4.80
2015,12,12,08,42,6.40
2015,12,12,08,44,9.60
2015,12,12,08,45,8.10
2015,12,12,08,46,8.10
2015,12,12,08,47,3.20
2015,12,12,08,48,1.60
2015,12,12,08,50,11.30
2015,12,12,08,51,6.40
2015,12,12,08,52,8.10
2015,12,12,08,53,4.80
2015,12,12,08,54,9.60
2015,12,12,08,55,9.60
2015,12,12,08,56,8.10
2015,12,12,08,57,9.60
2015,12,12,08,58,6.40
2015,12,12,08,59,3.20
2015,12,12,09,01,8.10
2015,12,12,09,02,3.20
2015,12,12,09,04,3.20
2015,12,12,09,06,1.60
2015,12,12,09,07,6.40
2015,12,12,09,09,6.40
2015,12,12,09,10,6.40
2015,12,12,09,11,6.40
2015,12,12,09,12,9.60
2015,12,12,09,13,8.10
2015,12,12,09,14,3.20
2015,12,12,09,15,6.40
2015,12,12,09,16,8.10
2015,12,12,09,17,8.10
2015,12,12,09,18,9.60
2015,12,12,09,19,8.10
2015,12,12,09,20,4.80
2015,12,12,09,21,6.40
2015,12,12,09,22,6.40
2015,12,12,09,23,4.80
2015,12,12,09,25,11.30
2015,12,12,09,26,9.60
2015,12,12,09,27,9.60
2015,12,12,09,28,9.60
2015,12,12,09,29,9.60
2015,12,12,09,30,12.90
2015,12,12,09,31,12.90
2015,12,12,09,32,8.10
2015,12,12,09,33,6.40
2015,12,12,09,34,9.60
2015,12,12,09,35,11.30
2015,12,12,09,36,11.30
2015,12,12,09,37,9.60
2015,12,12,09,38,9.60
2015,12,12,09,39,9.60
2015,12,12,09,40,9.60
2015,12,12,09,41,16.10
2015,12,12,09,42,9.60
2015,12,12,09,43,12.90
2015,12,12,09,44,14.50
2015,12,12,09,45,3.20
2015,12,12,09,46,8.10
2015,12,12,09,47,12.90
2015,12,12,09,48,9.60
2015,12,12,09,49,9.60
2015,12,12,09,50,17.70
2015,12,12,09,51,9.60
2015,12,12,09,52,12.90
2015,12,12,09,53,14.50
2015,12,12,09,54,8.10
2015,12,12,09,55,17.70
2015,12,12,09,56,12.90
2015,12,12,09,57,12.90
2015,12,12,09,58,12.90
2015,12,12,09,59,17.70
2015,12,12,10,00,19.30
2015,12,12,10,01,17.70
2015,12,12,10,02,14.50
2015,12,12,10,03,11.30
2015,12,12,10,04,9.60
2015,12,12,10,05,22.50
2015,12,12,10,06,16.10
2015,12,12,10,07,17.70
2015,12,12,10,08,19.30
2015,12,12,10,09,9.60
2015,12,12,10,10,17.70
2015,12,12,10,11,20.90
2015,12,12,10,12,20.90
2015,12,12,10,13,16.10
2015,12,12,10,14,19.30
2015,12,12,10,15,14.50
2015,12,12,10,16,14.50
2015,12,12,10,17,16.10
2015,12,12,10,18,29.00
2015,12,12,10,19,20.90
2015,12,12,10,20,14.50
2015,12,12,10,21,24.20
2015,12,12,10,22,19.30
2015,12,12,10,23,20.90
2015,12,12,10,24,12.90
2015,12,12,10,25,33.80
2015,12,12,10,26,25.70
2015,12,12,10,27,19.30
2015,12,12,10,28,14.50
2015,12,12,10,29,16.10
2015,12,12,10,30,30.60
2015,12,12,10,31,24.20
2015,12,12,10,32,14.50
2015,12,12,10,33,12.90
2015,12,12,10,34,35.40
2015,12,12,10,35,19.30
2015,12,12,10,36,33.80
2015,12,12,10,37,32.20
2015,12,12,10,38,33.80
2015,12,12,10,39,24.20
2015,12,12,10,40,22.50
2015,12,12,10,41,20.90
2015,12,12,10,42,24.20
2015,12,12,10,43,9.60
2015,12,12,10,44,32.20
2015,12,12,10,45,12.90
2015,12,12,10,46,20.90
2015,12,12,10,47,19.30
2015,12,12,10,48,24.20
2015,12,12,10,49,11.30
2015,12,12,10,50,17.70
2015,12,12,10,51,17.70
2015,12,12,10,52,19.30
2015,12,12,10,53,24.20
2015,12,12,10,54,17.70
2015,12,12,10,55,16.10
2015,12,12,10,56,17.70
2015,12,12,10,57,14.50
2015,12,12,10,58,22.50
2015,12,12,10,59,17.70
2015,12,12,11,00,20.90
2015,12,12,11,01,30.60
2015,12,12,11,02,19.30
2015,12,12,11,03,16.10
2015,12,12,11,04,22.50
2015,12,12,11,05,12.90
2015,12,12,11,06,25.70
2015,12,12,11,07,20.90
2015,12,12,11,08,14.50
2015,12,12,11,09,12.90
2015,12,12,11,10,12.90
2015,12,12,11,11,14.50
2015,12,12,11,12,17.70
2015,12,12,11,13,12.90
2015,12,12,11,14,17.70
2015,12,12,11,15,19.30
2015,12,12,11,16,19.30
2015,12,12,11,17,20.90
2015,12,12,11,18,19.30
2015,12,12,11,19,12.90
2015,12,12,11,20,8.10
2015,12,12,11,21,32.20
2015,12,12,11,22,16.10
2015,12,12,11,23,16.10
2015,12,12,11,24,16.10
2015,12,12,11,25,12.90
2015,12,12,11,26,11.30
2015,12,12,11,27,16.10
2015,12,12,11,28,14.50
2015,12,12,11,29,17.70
2015,12,12,11,30,12.90
2015,12,12,11,31,14.50
2015,12,12,11,32,25.70
2015,12,12,11,33,20.90
2015,12,12,11,34,17.70
2015,12,12,11,35,17.70
2015,12,12,11,36,16.10
2015,12,12,11,37,20.90
2015,12,12,11,38,20.90
2015,12,12,11,39,17.70
2015,12,12,11,40,16.10
2015,12,12,11,41,17.70
2015,12,12,11,42,17.70
2015,12,12,11,43,14.50
2015,12,12,11,44,16.10
2015,12,12,11,45,14.50
2015,12,12,11,46,9.60
2015,12,12,11,47,3.20
2015,12,12,11,48,6.40
2015,12,12,11,49,11.30
2015,12,12,11,50,11.30
2015,12,12,11,51,12.90
2015,12,12,11,52,12.90
2015,12,12,11,53,6.40
2015,12,12,11,54,8.10
2015,12,12,11,55,9.60
2015,12,12,11,56,17.70
2015,12,12,11,57,11.30
2015,12,12,11,58,11.30
2015,12,12,11,59,8.10
2015,12,12,12,00,12.90
2015,12,12,12,01,16.10
2015,12,12,12,02,20.90
2015,12,12,12,03,9.60
2015,12,12,12,04,17.70
2015,12,12,12,05,19.30
2015,12,12,12,06,12.90
2015,12,12,12,07,8.10
2015,12,12,12,08,11.30
2015,12,12,12,09,6.40
2015,12,12,12,10,14.50
2015,12,12,12,11,16.10
2015,12,12,12,12,19.30
2015,12,12,12,13,17.70
2015,12,12,12,14,9.60
2015,12,12,12,15,6.40
2015,12,12,12,16,9.60
2015,12,12,12,17,12.90
2015,12,12,12,18,11.30
2015,12,12,12,19,16.10
2015,12,12,12,20,16.10
2015,12,12,12,21,16.10
2015,12,12,12,22,16.10
2015,12,12,12,23,14.50
2015,12,12,12,24,16.10
2015,12,12,12,25,19.30
2015,12,12,12,26,11.30
2015,12,12,12,27,9.60
2015,12,12,12,28,12.90
2015,12,12,12,29,16.10
2015,12,12,12,30,20.90
2015,12,12,12,31,11.30
2015,12,12,12,32,17.70
2015,12,12,12,33,20.90
2015,12,12,12,34,14.50
2015,12,12,12,35,9.60
2015,12,12,12,36,14.50
2015,12,12,12,37,12.90
2015,12,12,12,38,9.60
2015,12,12,12,39,12.90
2015,12,12,12,40,11.30
2015,12,12,12,41,12.90
2015,12,12,12,42,14.50
2015,12,12,12,43,8.10
2015,12,12,12,44,19.30
2015,12,12,12,45,12.90
2015,12,12,12,46,17.70
2015,12,12,12,47,14.50
2015,12,12,12,48,8.10
2015,12,12,12,49,25.70
2015,12,12,12,50,12.90
2015,12,12,12,51,11.30
2015,12,12,12,52,12.90
2015,12,12,12,53,20.90
2015,12,12,12,54,30.60
2015,12,12,12,55,17.70
2015,12,12,12,56,16.10
2015,12,12,12,57,11.30
2015,12,12,12,58,20.90
2015,12,12,12,59,14.50
2015,12,12,13,00,22.50
2015,12,12,13,01,24.20
2015,12,12,13,02,17.70
2015,12,12,13,03,20.90
2015,12,12,13,04,30.60
2015,12,12,13,05,17.70
2015,12,12,13,06,19.30
2015,12,12,13,07,16.10
2015,12,12,13,08,17.70
2015,12,12,13,09,19.30
2015,12,12,13,10,24.20
2015,12,12,13,11,20.90
2015,12,12,13,12,29.00
2015,12,12,13,13,19.30
2015,12,12,13,14,16.10
2015,12,12,13,15,19.30
2015,12,12,13,16,32.20
2015,12,12,13,17,35.40
2015,12,12,13,18,25.70
2015,12,12,13,19,32.20
2015,12,12,13,20,22.50
2015,12,12,13,21,19.30
2015,12,12,13,22,19.30
2015,12,12,13,23,20.90
2015,12,12,13,24,33.80
2015,12,12,13,25,40.20
2015,12,12,13,26,32.20
2015,12,12,13,27,14.50
2015,12,12,13,28,33.80
2015,12,12,13,29,24.20
2015,12,12,13,30,33.80
2015,12,12,13,31,25.70
2015,12,12,13,32,29.00
2015,12,12,13,33,20.90
2015,12,12,13,34,29.00
2015,12,12,13,35,22.50
2015,12,12,13,36,14.50
2015,12,12,13,37,25.70
2015,12,12,13,38,24.20
2015,12,12,13,39,24.20
2015,12,12,13,40,17.70
2015,12,12,13,41,22.50
2015,12,12,13,42,30.60
2015,12,12,13,43,29.00
2015,12,12,13,44,37.00
2015,12,12,13,45,16.10
2015,12,12,13,46,22.50
2015,12,12,13,47,29.00
2015,12,12,13,48,24.20
2015,12,12,13,49,22.50
2015,12,12,13,50,40.20
2015,12,12,13,51,19.30
2015,12,12,13,52,29.00
2015,12,12,13,53,32.20
2015,12,12,13,54,19.30
2015,12,12,13,55,17.70
2015,12,12,13,56,29.00
2015,12,12,13,57,17.70
2015,12,12,13,58,24.20
2015,12,12,13,59,24.20
2015,12,12,14,00,12.90
2015,12,12,14,01,29.00
2015,12,12,14,02,24.20
2015,12,12,14,03,19.30
2015,12,12,14,04,11.30
2015,12,12,14,05,14.50
2015,12,12,14,06,25.70
2015,12,12,14,07,16.10
2015,12,12,14,08,17.70
2015,12,12,14,09,11.30
2015,12,12,14,10,14.50
2015,12,12,14,11,16.10
2015,12,12,14,12,9.60
2015,12,12,14,13,11.30
2015,12,12,14,14,30.60
2015,12,12,14,15,24.20
2015,12,12,14,16,17.70
2015,12,12,14,17,19.30
2015,12,12,14,18,12.90
2015,12,12,14,19,12.90
2015,12,12,14,20,17.70
2015,12,12,14,21,12.90
2015,12,12,14,22,22.50
2015,12,12,14,23,22.50
2015,12,12,14,24,25.70
2015,12,12,14,25,12.90
2015,12,12,14,26,20.90
2015,12,12,14,27,14.50
2015,12,12,14,28,8.10
2015,12,12,14,29,12.90
2015,12,12,14,30,17.70
2015,12,12,14,31,22.50
2015,12,12,14,32,20.90
2015,12,12,14,33,24.20
2015,12,12,14,34,19.30
2015,12,12,14,35,19.30
2015,12,12,14,36,20.90
2015,12,12,14,37,14.50
2015,12,12,14,38,17.70
2015,12,12,14,39,19.30
2015,12,12,14,40,11.30
2015,12,12,14,41,16.10
2015,12,12,14,42,17.70
2015,12,12,14,43,22.50
2015,12,12,14,44,25.70
2015,12,12,14,45,25.70
2015,12,12,14,46,20.90
2015,12,12,14,47,22.50
2015,12,12,14,48,22.50
2015,12,12,14,49,14.50
2015,12,12,14,50,16.10
2015,12,12,14,51,20.90
2015,12,12,14,52,16.10
2015,12,12,14,53,14.50
2015,12,12,14,54,12.90
2015,12,12,14,55,16.10
2015,12,12,14,56,12.90
2015,12,12,14,57,22.50
2015,12,12,14,58,41.80
2015,12,12,14,59,19.30
2015,12,12,15,00,16.10
2015,12,12,15,01,30.60
2015,12,12,15,02,22.50
2015,12,12,15,03,12.90
2015,12,12,15,04,22.50
2015,12,12,15,05,19.30
2015,12,12,15,06,14.50
2015,12,12,15,07,12.90
2015,12,12,15,08,49.90
2015,12,12,15,09,20.90
2015,12,12,15,10,20.90
2015,12,12,15,11,25.70
2015,12,12,15,12,20.90
2015,12,12,15,13,40.20
2015,12,12,15,14,45.10
2015,12,12,15,15,35.40
2015,12,12,15,16,38.60
2015,12,12,15,17,41.80
2015,12,12,15,18,17.70
2015,12,12,15,19,30.60
2015,12,12,15,20,19.30
2015,12,12,15,21,29.00
2015,12,12,15,22,32.20
2015,12,12,15,23,16.10
2015,12,12,15,24,20.90
2015,12,12,15,25,30.60
2015,12,12,15,26,32.20
2015,12,12,15,27,22.50
2015,12,12,15,28,16.10
2015,12,12,15,29,35.40
2015,12,12,15,30,32.20
2015,12,12,15,31,20.90
2015,12,12,15,32,19.30
2015,12,12,15,33,14.50
2015,12,12,15,34,29.00
2015,12,12,15,35,22.50
2015,12,12,15,36,14.50
2015,12,12,15,37,16.10
2015,12,12,15,38,19.30
2015,12,12,15,39,37.00
2015,12,12,15,40,24.20
2015,12,12,15,41,30.60
2015,12,12,15,42,11.30
2015,12,12,15,43,19.30
2015,12,12,15,44,24.20
2015,12,12,15,45,35.40
2015,12,12,15,46,30.60
2015,12,12,15,47,20.90
2015,12,12,15,48,33.80
2015,12,12,15,49,30.60
2015,12,12,15,50,24.20
2015,12,12,15,51,25.70
2015,12,12,15,52,33.80
2015,12,12,15,53,32.20
2015,12,12,15,54,41.80
2015,12,12,15,55,24.20
2015,12,12,15,56,22.50
2015,12,12,15,57,32.20
2015,12,12,15,58,12.90
2015,12,12,15,59,25.70
2015,12,12,16,00,17.70
2015,12,12,16,01,24.20
2015,12,12,16,02,22.50
2015,12,12,16,03,32.20
2015,12,12,16,04,30.60
2015,12,12,16,05,16.10
2015,12,12,16,06,14.50
2015,12,12,16,07,22.50
2015,12,12,16,08,22.50
2015,12,12,16,09,35.40
2015,12,12,16,10,29.00
2015,12,12,16,11,22.50
2015,12,12,16,12,16.10
2015,12,12,16,13,29.00
2015,12,12,16,14,24.20
2015,12,12,16,15,22.50
2015,12,12,16,16,38.60
2015,12,12,16,17,20.90
2015,12,12,16,18,29.00
2015,12,12,16,19,32.20
2015,12,12,16,20,20.90
2015,12,12,16,21,12.90
2015,12,12,16,22,20.90
2015,12,12,16,23,19.30
2015,12,12,16,24,40.20
2015,12,12,16,25,20.90
2015,12,12,16,26,19.30
2015,12,12,16,27,33.80
2015,12,12,16,28,12.90
2015,12,12,16,29,33.80
2015,12,12,16,30,24.20
2015,12,12,16,31,24.20
2015,12,12,16,32,24.20
2015,12,12,16,33,16.10
2015,12,12,16,34,19.30
2015,12,12,16,35,40.20
2015,12,12,16,36,17.70
2015,12,12,16,37,17.70
2015,12,12,16,38,25.70
2015,12,12,16,39,22.50
2015,12,12,16,40,24.20
2015,12,12,16,41,30.60
2015,12,12,16,42,11.30
2015,12,12,16,43,19.30
2015,12,12,16,44,24.20
2015,12,12,16,45,14.50
2015,12,12,16,46,22.50
2015,12,12,16,47,14.50
2015,12,12,16,48,12.90
2015,12,12,16,49,11.30
2015,12,12,16,50,17.70
2015,12,12,16,51,17.70
2015,12,12,16,52,19.30
2015,12,12,16,53,24.20
2015,12,12,16,54,24.20
2015,12,12,16,55,20.90
2015,12,12,16,56,19.30
2015,12,12,16,57,19.30
2015,12,12,16,58,25.70
2015,12,12,16,59,22.50
2015,12,12,17,00,19.30
2015,12,12,17,01,20.90
2015,12,12,17,02,25.70
2015,12,12,17,03,12.90
2015,12,12,17,04,9.60
2015,12,12,17,05,16.10
2015,12,12,17,06,22.50
2015,12,12,17,07,24.20
2015,12,12,17,08,14.50
2015,12,12,17,09,25.70
2015,12,12,17,10,22.50
2015,12,12,17,11,22.50
2015,12,12,17,12,17.70
2015,12,12,17,13,20.90
2015,12,12,17,14,17.70
2015,12,12,17,15,12.90
2015,12,12,17,16,24.20
2015,12,12,17,17,19.30
2015,12,12,17,18,14.50
2015,12,12,17,19,17.70
2015,12,12,17,20,24.20
2015,12,12,17,21,30.60
2015,12,12,17,22,25.70
2015,12,12,17,23,33.80
2015,12,12,17,24,19.30
2015,12,12,17,25,24.20
2015,12,12,17,26,22.50
2015,12,12,17,27,11.30
2015,12,12,17,28,16.10
2015,12,12,17,29,24.20
2015,12,12,17,30,20.90
2015,12,12,17,31,20.90
2015,12,12,17,32,24.20
2015,12,12,17,33,20.90
2015,12,12,17,34,20.90
2015,12,12,17,35,29.00
2015,12,12,17,36,32.20
2015,12,12,17,37,20.90
2015,12,12,17,38,30.60
2015,12,12,17,39,17.70
2015,12,12,17,40,33.80
2015,12,12,17,41,20.90
2015,12,12,17,42,29.00
2015,12,12,17,43,20.90
2015,12,12,17,44,32.20
2015,12,12,17,45,16.10
2015,12,12,17,46,17.70
2015,12,12,17,47,17.70
2015,12,12,17,48,25.70
2015,12,12,17,49,30.60
2015,12,12,17,50,22.50
2015,12,12,17,51,25.70
2015,12,12,17,52,14.50
2015,12,12,17,53,14.50
2015,12,12,17,54,22.50
2015,12,12,17,55,25.70
2015,12,12,17,56,19.30
2015,12,12,17,57,16.10
2015,12,12,17,58,12.90
2015,12,12,17,59,19.30
2015,12,12,18,00,17.70
2015,12,12,18,01,16.10
2015,12,12,18,02,14.50
2015,12,12,18,03,12.90
2015,12,12,18,04,14.50
2015,12,12,18,05,17.70
2015,12,12,18,06,29.00
2015,12,12,18,07,29.00
2015,12,12,18,08,9.60
2015,12,12,18,09,12.90
2015,12,12,18,10,19.30
2015,12,12,18,11,11.30
2015,12,12,18,12,14.50
2015,12,12,18,13,12.90
2015,12,12,18,14,14.50
2015,12,12,18,15,14.50
2015,12,12,18,16,12.90
2015,12,12,18,17,6.40
2015,12,12,18,18,8.10
2015,12,12,18,19,20.90
2015,12,12,18,20,24.20
2015,12,12,18,21,14.50
2015,12,12,18,22,12.90
2015,12,12,18,23,14.50
2015,12,12,18,24,12.90
2015,12,12,18,25,24.20
2015,12,12,18,26,20.90
2015,12,12,18,27,14.50
2015,12,12,18,28,9.60
2015,12,12,18,29,16.10
2015,12,12,18,30,16.10
2015,12,12,18,31,11.30
2015,12,12,18,32,9.60
2015,12,12,18,33,11.30
2015,12,12,18,34,9.60
2015,12,12,18,35,17.70
2015,12,12,18,36,14.50
2015,12,12,18,37,14.50
2015,12,12,18,38,12.90
2015,12,12,18,39,16.10
2015,12,12,18,40,17.70
2015,12,12,18,41,12.90
2015,12,12,18,42,14.50
2015,12,12,18,43,8.10
2015,12,12,18,44,9.60
2015,12,12,18,45,12.90
2015,12,12,18,46,9.60
2015,12,12,18,47,11.30
2015,12,12,18,48,12.90
2015,12,12,18,49,8.10
2015,12,12,18,50,11.30
2015,12,12,18,51,8.10
2015,12,12,18,52,8.10
2015,12,12,18,53,8.10
2015,12,12,18,54,6.40
2015,12,12,18,55,8.10
2015,12,12,18,56,6.40
2015,12,12,18,57,9.60
2015,12,12,18,58,1.60
2015,12,12,18,59,9.60
2015,12,12,19,00,6.40
2015,12,12,19,01,9.60
2015,12,12,19,02,11.30
2015,12,12,19,03,11.30
2015,12,12,19,04,9.60
2015,12,12,19,05,8.10
2015,12,12,19,06,8.10
2015,12,12,19,07,12.90
2015,12,12,19,08,14.50
2015,12,12,19,09,9.60
2015,12,12,19,10,8.10
2015,12,12,19,11,8.10